Wautoma, WI

3:34 AM CDT on September 26, 2016 (GMT -0500)
Wautoma

Weather History for KY50 - March, 2014

Change the Weather History Date:

Saturday, March 15, 2014

  Actual Average (KPCZ) Record (KPCZ)
Temperature  
Mean Temperature 28 °F -  
Max Temperature 32 °F 41 °F 68 °F (1990)
Min Temperature 21 °F 22 °F -5 °F (1956)
Degree Days  
Heating Degree Days 36    
Moisture  
Dew Point 17 °F    
Average Humidity 60    
Maximum Humidity 74    
Minimum Humidity 46    
Precipitation  
Precipitation 0.00 in - - ()
Sea Level Pressure  
Sea Level Pressure 30.13 in    
Wind  
Wind Speed 11 mph (NNW)    
Max Wind Speed 17 mph    
Max Gust Speed 24 mph    
Visibility 10 miles    
Events      
Averages and records for this station are not official NWS values.
T = Trace of Precipitation, MM = Missing Value Source: NWS Daily Summary

Daily Weather History Graph

Daily Weather History Graph

Search for Another Location

Airport or City:

Trip Planner

Search our weather history database for the weather conditions in past years. The results will help you decide how hot, cold, wet, or windy it might be!

Date:

Astronomy

Mar. 15, 2014 Rise Set
Actual Time 7:09 AM CDT 7:03 PM CDT
Civil Twilight 6:40 AM CDT 7:32 PM CDT
Nautical Twilight 6:07 AM CDT 8:05 PM CDT
Astronomical Twilight 5:33 AM CDT 8:40 PM CDT
Moon 6:22 PM CDT (3/15) 6:22 AM CDT (3/15)
Length of Visible Light 12h 51m
Length of Day
11h 54m
Waxing Gibbous, 99% of the Moon is Illuminated
Mar 15
Waxing Gibbous
Mar 16
Full
Mar 23
Last Quarter
Mar 30
New
Apr 7
First Quarter

Hourly Weather History & Observations

Time (CDT) Temp. Windchill Dew Point Humidity Pressure Visibility Wind Dir Wind Speed Gust Speed Precip Events Conditions
12:56 AM 33.8 °F 23.2 °F 23.0 °F 65% 29.83 in 10.0 mi WNW 17.3 mph 21.9 mph N/A   Overcast
1:56 AM 31.1 °F 23.1 °F 23.0 °F 72% 29.88 in 10.0 mi NW 9.2 mph - N/A   Overcast
2:56 AM 31.1 °F 20.9 °F 21.0 °F 66% 29.91 in 10.0 mi NW 13.8 mph 18.4 mph N/A   Overcast
3:56 AM 30.2 °F 19.3 °F 19.4 °F 64% 29.91 in 10.0 mi NNW 15.0 mph 19.6 mph N/A   Mostly Cloudy
4:56 AM 29.1 °F 19.4 °F 18.1 °F 64% 29.95 in 10.0 mi NNW 11.5 mph - N/A   Mostly Cloudy
5:56 AM 26.1 °F 18.4 °F 17.1 °F 69% 29.99 in 10.0 mi NW 6.9 mph - N/A   Clear
6:56 AM 25.2 °F 19.5 °F 17.1 °F 71% 30.02 in 10.0 mi WNW 4.6 mph - N/A   Mostly Cloudy
7:56 AM 25.2 °F 19.5 °F 16.2 °F 69% 30.05 in 10.0 mi NW 4.6 mph - N/A   Partly Cloudy
8:56 AM 27.1 °F 20.7 °F 16.2 °F 63% 30.09 in 10.0 mi NW 5.8 mph - N/A   Mostly Cloudy
9:56 AM 28.4 °F 21.2 °F 15.8 °F 59% 30.09 in 10.0 mi North 6.9 mph - N/A   Mostly Cloudy
10:56 AM 31.1 °F 25.4 °F 17.1 °F 56% 30.12 in 10.0 mi NW 5.8 mph - N/A   Partly Cloudy
11:56 AM 32.0 °F 25.6 °F 16.2 °F 52% 30.14 in 10.0 mi NNW 6.9 mph - N/A   Mostly Cloudy
12:56 PM 32.9 °F 25.9 °F 14.0 °F 46% 30.16 in 10.0 mi WNW 8.1 mph - N/A   Overcast
1:56 PM 32.9 °F 27.5 °F 14.0 °F 46% 30.17 in 10.0 mi Variable 5.8 mph - N/A   Overcast
2:56 PM 32.9 °F 25.9 °F 15.1 °F 48% 30.17 in 10.0 mi WNW 8.1 mph - N/A   Overcast
3:56 PM 32.9 °F 27.5 °F 14.0 °F 46% 30.19 in 10.0 mi NNW 5.8 mph - N/A   Mostly Cloudy
4:56 PM 32.9 °F 26.7 °F 14.0 °F 46% 30.21 in 10.0 mi NNW 6.9 mph - N/A   Overcast
5:56 PM 32.0 °F 25.6 °F 14.0 °F 48% 30.22 in 10.0 mi NNW 6.9 mph - N/A   Overcast
6:56 PM 31.1 °F 24.5 °F 16.2 °F 54% 30.25 in 10.0 mi North 6.9 mph - N/A   Clear
7:56 PM 30.0 °F 23.2 °F 16.2 °F 56% 30.27 in 10.0 mi North 6.9 mph - N/A   Clear
8:56 PM 29.1 °F 20.0 °F 14.0 °F 53% 30.30 in 10.0 mi NNE 10.4 mph - N/A   Clear
9:56 PM 26.6 °F 15.2 °F 19.4 °F 74% 30.32 in 10.0 mi East 13.8 mph 18.4 mph N/A   Mostly Cloudy
10:56 PM 24.1 °F 11.5 °F 16.2 °F 72% 30.39 in 10.0 mi ENE 15.0 mph - N/A   Overcast
11:56 PM 21.0 °F 6.6 °F 13.1 °F 71% 30.41 in 10.0 mi ENE 17.3 mph 24.2 mph N/A   Overcast